Location: *
(46.1866°S, 178.5290°W)
Time: 12:51:15
(UTC+00:00)

Cosmos 1461 - Pass Details

Date: 05 October 2021
Orbit: 520 x 642 km, 65.0° (Epoch: 18 October)

Event Time Altitude Azimuth Distance (km) Brightness Sun altitude
Rises 14:40:31 0° 213° (SSW) 2,932 6.6 -25.4°
Reaches altitude 10° 14:42:52 10° 206° (SSW) 2,035 5.8 -25.1°
Maximum altitude 14:47:20 46° 132° (SE) 873 4.2 -24.5°
Drops below altitude 10° 14:51:50 10° 58° (ENE) 2,051 6.0 -23.9°
Sets 14:54:13 0° 52° (NE) 2,957 6.7 -23.5°
